Gore Bay, Ontario

3:53 PM EDT on April 27, 2017 (GMT -0400)
Gore Bay-Manitoulin

Weather History for CYZE - October, 2013

Change the Weather History Date:

Sunday, October 13, 2013

  Actual Average Record
Temperature  
Mean Temperature 58 °F -  
Max Temperature 66 °F 48 °F 68 °F (2008)
Min Temperature 50 °F 36 °F 30 °F (2012)
Degree Days  
Heating Degree Days 7    
Growing Degree Days 8 (Base 50)    
Moisture  
Dew Point 49 °F    
Average Humidity 71    
Maximum Humidity 95    
Minimum Humidity 39    
Precipitation  
Precipitation 0.03 in 0.11 in - ()
Sea Level Pressure  
Sea Level Pressure 30.17 in    
Wind  
Wind Speed 11 mph ()    
Max Wind Speed 18 mph    
Max Gust Speed 24 mph    
Visibility 9.0 miles    
Events      
Averages and records for this station are not official NWS values.
T = Trace of Precipitation, MM = Missing Value Source: Averaged Metar Reports

Daily Weather History Graph

Daily Weather History Graph

Search for Another Location

Airport or City:

Trip Planner

Search our weather history database for the weather conditions in past years. The results will help you decide how hot, cold, wet, or windy it might be!

Date:

Astronomy

Oct. 13, 2013 Rise Set
Actual Time 7:44 AM EDT 6:47 PM EDT
Civil Twilight 7:14 AM EDT 7:17 PM EDT
Nautical Twilight 6:40 AM EDT 7:51 PM EDT
Astronomical Twilight 6:05 AM EDT 8:26 PM EDT
Moon 3:53 PM EDT (10/13) 1:36 AM EDT (10/13)
Length of Visible Light 12h 02m
Length of Day
11h 02m
Waxing Gibbous, 69% of the Moon is Illuminated
Oct 13
Waxing Gibbous
Oct 18
Full
Oct 26
Last Quarter
Nov 3
New
Nov 10
First Quarter

Hourly Weather History & Observations

Time (EDT) Temp. Dew Point Humidity Pressure Visibility Wind Dir Wind Speed Gust Speed Precip Events Conditions
12:00 AM 64.4 °F 53.6 °F 68% 30.02 in 9.0 mi SSE 18.4 mph - N/A   Overcast
1:00 AM 62.6 °F 57.2 °F 82% 30.03 in 9.0 mi South 11.5 mph 18.4 mph N/A   Overcast
2:00 AM 57 °F 45 °F 53% 30.06 in - South 8.1 mph - -  
2:00 AM 60.8 °F 59.0 °F 94% 30.04 in 9.0 mi SSE 12.7 mph 19.6 mph N/A   Overcast
3:00 AM 62.6 °F 59.0 °F 88% 30.05 in 9.0 mi SSW 13.8 mph 20.7 mph N/A   Overcast
3:20 AM 62.6 °F 57.2 °F 82% 30.06 in 9.0 mi SW 13.8 mph - N/A   Overcast
3:55 AM 60.8 °F 55.4 °F 82% 30.06 in 9.0 mi WSW 13.8 mph - N/A   Overcast
4:00 AM 60.8 °F 55.4 °F 82% 30.07 in 9.0 mi West 12.7 mph - N/A   Overcast
5:00 AM 59.0 °F 51.8 °F 77% 30.09 in 9.0 mi WSW 9.2 mph - N/A   Overcast
6:00 AM 59.0 °F 46.4 °F 63% 30.11 in 9.0 mi West 10.4 mph - N/A   Overcast
7:00 AM 55.4 °F 48.2 °F 77% 30.14 in 9.0 mi WSW 9.2 mph - N/A   Partly Cloudy
8:00 AM 54 °F 53 °F 95% 30.11 in - SSE 8.1 mph - -  
8:00 AM 53.6 °F 48.2 °F 82% 30.16 in 9.0 mi WSW 8.1 mph - N/A   Clear
9:00 AM 57.2 °F 50.0 °F 77% 30.18 in 9.0 mi West 9.2 mph - N/A   Clear
10:00 AM 59.0 °F 48.2 °F 67% 30.20 in 9.0 mi West 12.7 mph - N/A   Clear
11:00 AM 60.8 °F 48.2 °F 63% 30.21 in 9.0 mi West 11.5 mph - N/A   Clear
12:00 PM 62.6 °F 44.6 °F 52% 30.22 in 9.0 mi West 9.2 mph - N/A   Scattered Clouds
1:00 PM 62.6 °F 46.4 °F 55% 30.23 in 9.0 mi West 9.2 mph - N/A   Clear
2:00 PM 65 °F 46 °F 39% 30.14 in - WSW 8.1 mph - -  
2:00 PM 60.8 °F 44.6 °F 55% 30.23 in 9.0 mi West 10.4 mph - N/A   Scattered Clouds
3:00 PM 59.0 °F 46.4 °F 63% 30.24 in 9.0 mi West 12.7 mph 19.6 mph N/A   Partly Cloudy
4:00 PM 59.0 °F 44.6 °F 59% 30.24 in 9.0 mi WNW 11.5 mph 18.4 mph N/A   Partly Cloudy
5:00 PM 59.0 °F 48.2 °F 67% 30.25 in 9.0 mi West 13.8 mph 19.6 mph N/A   Scattered Clouds
6:00 PM 55.4 °F 48.2 °F 77% 30.27 in 9.0 mi WNW 12.7 mph 18.4 mph N/A   Overcast
7:00 PM 55.4 °F 46.4 °F 72% 30.28 in 9.0 mi WNW 15.0 mph 21.9 mph N/A   Overcast
8:00 PM 54 °F 43 °F 55% 30.20 in - SW 8.1 mph - -  
8:00 PM 53.6 °F 46.4 °F 77% 30.30 in 9.0 mi WNW 15.0 mph 20.7 mph N/A   Clear
9:00 PM 51.8 °F 42.8 °F 71% 30.31 in 9.0 mi WNW 16.1 mph 23.0 mph N/A   Clear
10:00 PM 50.0 °F 42.8 °F 76% 30.32 in 9.0 mi WNW 13.8 mph - N/A   Clear
11:00 PM 50.0 °F 42.8 °F 76% 30.33 in 9.0 mi NW 12.7 mph 24.2 mph N/A   Clear